Hourly Data Report for October 12, 2014

All times are specified in Local Standard Time (LST). Add 1 hour to adjust for Daylight Saving Time where and when it is observed.

ST LEONARD CS
NEW BRUNSWICK

47°09'28.050" N
67°49'55.014" W
245.00 m
810I001
71019
WIY

Download Data

Hourly Data (October 2014)
Hourly Data Report for October 12, 2014
Temp Definition
°C
Dew Point Temp Definition
°C
Rel Hum Definition
%
Wind Dir Definition
10's deg

Wind Spd Definition
km/h
Visibility Definition
km
Stn Press Definition
kPa
Hmdx Definition


Wind Chill Definition


Weather Definition


TIME
00:00 3.2 2.6 96 0 1   98.71     LegendNANA
01:00 2.4 1.9 97 29 1   98.73     LegendNANA
02:00 2.9 2.5 97 30 1   98.75     LegendNANA
03:00 2.1 1.7 97 30 1   98.78     LegendNANA
04:00 1.4 1.0 98 29 3   98.82     LegendNANA
05:00 1.2 1.0 99 31 2   98.85     LegendNANA
06:00 -0.2 -0.4 98 0 1   98.91   -1 LegendNANA
07:00 -0.4 -0.6 99 13 LegendMM   98.96     LegendNANA
08:00 2.4 2.0 97 8 LegendMM   99.03     LegendNANA
09:00 3.7 2.4 91 29 3   99.10     LegendNANA
10:00 5.7 2.5 80 29 3   99.12     LegendNANA
11:00 7.6 2.6 71 29 5   99.14     LegendNANA
12:00 8.9 1.1 58 31 8   99.13     LegendNANA
13:00 10.1 1.5 55 29 9   99.13     LegendNANA
14:00 10.5 0.7 51 30 8   99.12     LegendNANA
15:00 10.8 0.9 50 31 7   99.14     LegendNANA
16:00 11.1 0.9 49 31 4   99.15     LegendNANA
17:00 10.8 0.8 50 30 2   99.13     LegendNANA
18:00 7.7 2.0 67 8 LegendMM   99.14     LegendNANA
19:00 4.6 1.5 81   0   99.19     LegendNANA
20:00 2.7 0.9 88 34 LegendMM   99.21     LegendNANA
21:00 3.3 0.3 81 36 1   99.26     LegendNANA
22:00 4.1 0.3 76 36 1   99.28     LegendNANA
23:00 2.3 0.4 87 0 1   99.30     LegendNANA

Notes on Data Quality.

Legend

  • E = Estimated
  • M = Missing
  • NA = Not Available
  • ‡ = Partner data that is not subject to review by the National Climate Archives
Date modified: